Time,TemperatureF,DewpointF,PressureIn,WindDirection,WindDirectionDegrees,WindSpeedMPH,WindSpeedGustMPH,Humidity,HourlyPrecipIn,Conditions,Clouds,dailyrainin,SoftwareType,DateUTC
2013-06-15 00:02:00,45.0,34.0,-100.00,SE,140,9.0,11.0,66,0.00,,,0.00,,2013-06-15 06:02:00,
2013-06-15 00:12:00,43.0,34.0,-100.00,SE,131,7.0,9.0,70,0.00,,,0.00,,2013-06-15 06:12:00,
2013-06-15 00:24:00,43.0,34.0,-100.00,SE,131,7.0,9.0,70,0.00,,,0.00,,2013-06-15 06:24:00,
2013-06-15 00:33:00,43.0,34.0,-100.00,SE,137,8.0,9.0,71,0.00,,,0.00,,2013-06-15 06:33:00,
2013-06-15 00:43:00,42.0,34.0,-100.00,SE,138,8.0,10.0,71,0.00,,,0.00,,2013-06-15 06:43:00,
2013-06-15 00:53:00,42.0,34.0,-100.00,SE,138,8.0,10.0,71,0.00,,,0.00,,2013-06-15 06:53:00,
2013-06-15 01:01:00,43.0,33.0,-100.00,SE,145,9.0,11.0,67,0.00,,,0.00,,2013-06-15 07:01:00,
2013-06-15 01:11:00,43.0,32.0,-100.00,SE,138,9.0,12.0,64,0.00,,,0.00,,2013-06-15 07:11:00,
2013-06-15 01:23:00,43.0,32.0,-100.00,SE,138,9.0,12.0,64,0.00,,,0.00,,2013-06-15 07:23:00,
2013-06-15 01:33:00,42.0,32.0,-100.00,SE,137,9.0,10.0,67,0.00,,,0.00,,2013-06-15 07:33:00,
2013-06-15 01:43:00,42.0,32.0,-100.00,SE,136,7.0,9.0,68,0.00,,,0.00,,2013-06-15 07:43:00,
2013-06-15 01:53:00,42.0,31.0,-100.00,SE,134,8.0,10.0,64,0.00,,,0.00,,2013-06-15 07:53:00,
2013-06-15 02:02:00,42.0,31.0,-100.00,SE,134,8.0,10.0,64,0.00,,,0.00,,2013-06-15 08:02:00,
2013-06-15 02:11:00,42.0,31.0,-100.00,SE,134,8.0,10.0,64,0.00,,,0.00,,2013-06-15 08:11:00,
2013-06-15 02:22:00,42.0,31.0,-100.00,SE,140,8.0,10.0,65,0.00,,,0.00,,2013-06-15 08:22:00,
2013-06-15 02:33:00,41.0,30.0,-100.00,SE,133,8.0,10.0,64,0.00,,,0.00,,2013-06-15 08:33:00,
2013-06-15 02:42:00,41.0,30.0,-100.00,ESE,119,8.0,9.0,65,0.00,,,0.00,,2013-06-15 08:42:00,
2013-06-15 02:53:00,41.0,30.0,-100.00,ESE,119,8.0,9.0,65,0.00,,,0.00,,2013-06-15 08:53:00,
2013-06-15 03:02:00,40.0,30.0,-100.00,SE,130,7.0,9.0,67,0.00,,,0.00,,2013-06-15 09:02:00,
2013-06-15 03:12:00,41.0,29.0,-100.00,SE,143,8.0,9.0,62,0.00,,,0.00,,2013-06-15 09:12:00,
2013-06-15 03:22:00,41.0,29.0,-100.00,SE,143,8.0,9.0,62,0.00,,,0.00,,2013-06-15 09:22:00,
2013-06-15 03:33:00,40.0,31.0,-100.00,WSW,239,2.0,3.0,69,0.00,,,0.00,,2013-06-15 09:33:00,
2013-06-15 03:43:00,40.0,31.0,-100.00,NNW,344,0.0,2.0,72,0.00,,,0.00,,2013-06-15 09:43:00,
2013-06-15 03:52:00,40.0,31.0,-100.00,NNW,344,0.0,2.0,72,0.00,,,0.00,,2013-06-15 09:52:00,
2013-06-15 04:02:00,39.0,31.0,-100.00,SE,137,2.0,3.0,72,0.00,,,0.00,,2013-06-15 10:02:00,
2013-06-15 04:11:00,38.0,29.0,-100.00,ESE,120,5.0,7.0,69,0.00,,,0.00,,2013-06-15 10:11:00,
2013-06-15 04:23:00,38.0,29.0,-100.00,ESE,120,5.0,7.0,69,0.00,,,0.00,,2013-06-15 10:23:00,
2013-06-15 04:33:00,38.0,29.0,-100.00,ESE,120,5.0,7.0,69,0.00,,,0.00,,2013-06-15 10:33:00,
2013-06-15 04:43:00,39.0,32.0,-100.00,ESE,114,2.0,4.0,76,0.00,,,0.00,,2013-06-15 10:43:00,
2013-06-15 04:53:00,39.0,32.0,-100.00,ESE,114,2.0,4.0,76,0.00,,,0.00,,2013-06-15 10:53:00,
2013-06-15 05:01:00,37.0,33.0,-100.00,SSE,148,5.0,6.0,86,0.00,,,0.00,,2013-06-15 11:01:00,
2013-06-15 05:11:00,38.0,33.0,-100.00,SE,143,4.0,5.0,82,0.00,,,0.00,,2013-06-15 11:11:00,
2013-06-15 05:22:00,38.0,33.0,-100.00,SE,143,4.0,5.0,82,0.00,,,0.00,,2013-06-15 11:22:00,
2013-06-15 05:33:00,37.0,31.0,-100.00,SE,136,4.0,6.0,81,0.00,,,0.00,,2013-06-15 11:33:00,
2013-06-15 05:43:00,36.0,31.0,-100.00,SSE,147,4.0,5.0,83,0.00,,,0.00,,2013-06-15 11:43:00,
2013-06-15 05:53:00,36.0,31.0,-100.00,SSE,147,4.0,5.0,83,0.00,,,0.00,,2013-06-15 11:53:00,
2013-06-15 06:01:00,36.0,31.0,-100.00,SSE,147,4.0,5.0,83,0.00,,,0.00,,2013-06-15 12:01:00,
2013-06-15 06:11:00,36.0,30.0,-100.00,SE,138,6.0,8.0,79,0.00,,,0.00,,2013-06-15 12:11:00,
2013-06-15 06:22:00,36.0,30.0,-100.00,SE,138,6.0,8.0,79,0.00,,,0.00,,2013-06-15 12:22:00,
2013-06-15 06:33:00,37.0,30.0,-100.00,SE,143,4.0,6.0,78,0.00,,,0.00,,2013-06-15 12:33:00,
2013-06-15 06:43:00,37.0,31.0,-100.00,SSE,150,5.0,6.0,76,0.00,,,0.00,,2013-06-15 12:43:00,
2013-06-15 06:52:00,37.0,31.0,-100.00,SSE,150,5.0,6.0,76,0.00,,,0.00,,2013-06-15 12:52:00,
2013-06-15 07:02:00,38.0,32.0,-100.00,South,178,2.0,3.0,78,0.00,,,0.00,,2013-06-15 13:02:00,
2013-06-15 07:11:00,40.0,33.0,-100.00,SE,128,0.0,1.0,78,0.00,,,0.00,,2013-06-15 13:11:00,
2013-06-15 07:22:00,41.0,33.0,-100.00,ENE,73,2.0,3.0,73,0.00,,,0.00,,2013-06-15 13:22:00,
2013-06-15 07:32:00,41.0,33.0,-100.00,ENE,73,2.0,3.0,73,0.00,,,0.00,,2013-06-15 13:32:00,
2013-06-15 07:43:00,41.0,34.0,-100.00,ENE,75,2.0,2.0,75,0.00,,,0.00,,2013-06-15 13:43:00,
2013-06-15 07:53:00,41.0,34.0,-100.00,ENE,75,2.0,2.0,75,0.00,,,0.00,,2013-06-15 13:53:00,
2013-06-15 08:01:00,42.0,36.0,-100.00,SE,130,2.0,3.0,79,0.00,,,0.00,,2013-06-15 14:01:00,
2013-06-15 08:12:00,42.0,37.0,-100.00,SSE,148,3.0,5.0,81,0.00,,,0.00,,2013-06-15 14:12:00,
2013-06-15 08:22:00,42.0,37.0,-100.00,SSE,148,3.0,5.0,81,0.00,,,0.00,,2013-06-15 14:22:00,
2013-06-15 08:34:00,45.0,37.0,-100.00,North,0,2.0,2.0,72,0.00,,,0.00,,2013-06-15 14:34:00,
2013-06-15 08:43:00,47.0,37.0,-100.00,North,3,2.0,4.0,67,0.00,,,0.00,,2013-06-15 14:43:00,
2013-06-15 08:53:00,47.0,37.0,-100.00,North,3,2.0,4.0,67,0.00,,,0.00,,2013-06-15 14:53:00,
2013-06-15 09:01:00,49.0,37.0,-100.00,NNW,335,2.0,4.0,63,0.00,,,0.00,,2013-06-15 15:01:00,
2013-06-15 09:11:00,49.0,37.0,-100.00,NNE,20,3.0,4.0,62,0.00,,,0.00,,2013-06-15 15:11:00,
2013-06-15 09:22:00,49.0,37.0,-100.00,NNE,20,3.0,4.0,62,0.00,,,0.00,,2013-06-15 15:22:00,
2013-06-15 09:33:00,50.0,37.0,-100.00,North,3,4.0,5.0,61,0.00,,,0.00,,2013-06-15 15:33:00,
2013-06-15 09:43:00,52.0,38.0,-100.00,NNE,31,3.0,4.0,58,0.00,,,0.00,,2013-06-15 15:43:00,
2013-06-15 09:53:00,52.0,38.0,-100.00,NNE,31,3.0,4.0,58,0.00,,,0.00,,2013-06-15 15:53:00,
2013-06-15 10:01:00,53.0,38.0,-100.00,North,6,5.0,7.0,58,0.00,,,0.00,,2013-06-15 16:01:00,
2013-06-15 10:11:00,54.0,37.0,-100.00,NNE,23,4.0,5.0,52,0.00,,,0.00,,2013-06-15 16:11:00,
2013-06-15 10:22:00,54.0,37.0,-100.00,NNE,23,4.0,5.0,52,0.00,,,0.00,,2013-06-15 16:22:00,
2013-06-15 10:33:00,56.0,35.0,-100.00,North,360,4.0,6.0,45,0.00,,,0.00,,2013-06-15 16:33:00,
2013-06-15 10:43:00,57.0,31.0,-100.00,NNW,340,4.0,6.0,37,0.00,,,0.00,,2013-06-15 16:43:00,
2013-06-15 10:53:00,57.0,31.0,-100.00,NNW,340,4.0,6.0,37,0.00,,,0.00,,2013-06-15 16:53:00,
2013-06-15 11:01:00,58.0,38.0,-100.00,North,10,5.0,7.0,46,0.00,,,0.00,,2013-06-15 17:01:00,
2013-06-15 11:11:00,60.0,40.0,-100.00,NNE,16,5.0,7.0,48,0.00,,,0.00,,2013-06-15 17:11:00,
2013-06-15 11:21:00,60.0,40.0,-100.00,NNE,16,5.0,7.0,48,0.00,,,0.00,,2013-06-15 17:21:00,
2013-06-15 11:32:00,62.0,41.0,-100.00,North,4,6.0,8.0,48,0.00,,,0.00,,2013-06-15 17:32:00,
2013-06-15 11:43:00,63.0,41.0,-100.00,North,360,4.0,5.0,45,0.00,,,0.00,,2013-06-15 17:43:00,
2013-06-15 11:52:00,63.0,41.0,-100.00,North,360,4.0,5.0,45,0.00,,,0.00,,2013-06-15 17:52:00,
2013-06-15 12:01:00,64.0,40.0,-100.00,North,8,7.0,9.0,42,0.00,,,0.00,,2013-06-15 18:01:00,
2013-06-15 12:11:00,66.0,39.0,-100.00,North,0,5.0,8.0,37,0.00,,,0.00,,2013-06-15 18:11:00,
2013-06-15 12:22:00,66.0,39.0,-100.00,North,0,5.0,8.0,37,0.00,,,0.00,,2013-06-15 18:22:00,
2013-06-15 13:32:00,71.0,40.0,-100.00,North,11,7.0,9.0,32,0.00,,,0.00,,2013-06-15 19:32:00,
2013-06-15 13:43:00,71.0,39.0,-100.00,North,353,7.0,10.0,31,0.00,,,0.00,,2013-06-15 19:43:00,
2013-06-15 13:52:00,71.0,39.0,-100.00,North,353,7.0,10.0,31,0.00,,,0.00,,2013-06-15 19:52:00,
2013-06-15 14:22:00,73.0,31.0,-100.00,NNW,344,6.0,9.0,22,0.00,,,0.00,,2013-06-15 20:22:00,
2013-06-15 14:33:00,73.0,31.0,-100.00,NW,311,3.0,6.0,21,0.00,,,0.00,,2013-06-15 20:33:00,
2013-06-15 14:43:00,73.0,34.0,-100.00,NW,318,7.0,10.0,20,0.00,,,0.00,,2013-06-15 20:43:00,
2013-06-15 14:53:00,73.0,34.0,-100.00,NW,318,7.0,10.0,20,0.00,,,0.00,,2013-06-15 20:53:00,
2013-06-15 15:01:00,75.0,29.0,-100.00,NW,312,6.0,8.0,18,0.00,,,0.00,,2013-06-15 21:01:00,
2013-06-15 15:11:00,75.0,29.0,-100.00,NW,312,6.0,8.0,18,0.00,,,0.00,,2013-06-15 21:11:00,
2013-06-15 15:22:00,75.0,27.0,-100.00,NW,305,6.0,9.0,17,0.00,,,0.00,,2013-06-15 21:22:00,
2013-06-15 15:33:00,75.0,27.0,-100.00,NW,305,6.0,9.0,17,0.00,,,0.00,,2013-06-15 21:33:00,
2013-06-15 15:42:00,75.0,26.0,-100.00,NW,316,8.0,10.0,16,0.00,,,0.00,,2013-06-15 21:42:00,
2013-06-15 15:53:00,75.0,26.0,-100.00,NW,316,8.0,10.0,16,0.00,,,0.00,,2013-06-15 21:53:00,
2013-06-15 16:01:00,75.0,34.0,-100.00,NW,326,8.0,10.0,22,0.00,,,0.00,,2013-06-15 22:01:00,
2013-06-15 16:11:00,76.0,30.0,-100.00,North,0,6.0,8.0,18,0.00,,,0.00,,2013-06-15 22:11:00,
2013-06-15 16:22:00,76.0,30.0,-100.00,North,0,6.0,8.0,18,0.00,,,0.00,,2013-06-15 22:22:00,
2013-06-15 16:42:00,77.0,32.0,-100.00,NNW,329,6.0,8.0,19,0.00,,,0.00,,2013-06-15 22:42:00,
2013-06-15 16:53:00,77.0,28.0,-100.00,NW,318,6.0,9.0,16,0.00,,,0.00,,2013-06-15 22:53:00,
2013-06-15 17:01:00,77.0,28.0,-100.00,NW,318,6.0,9.0,16,0.00,,,0.00,,2013-06-15 23:01:00,
2013-06-15 17:22:00,78.0,34.0,-100.00,NW,313,4.0,6.0,20,0.00,,,0.00,,2013-06-15 23:22:00,
2013-06-15 17:33:00,78.0,30.0,-100.00,NW,320,6.0,7.0,17,0.00,,,0.00,,2013-06-15 23:33:00,
2013-06-15 17:42:00,78.0,28.0,-100.00,NNW,328,6.0,9.0,16,0.00,,,0.00,,2013-06-15 23:42:00,
2013-06-15 17:53:00,78.0,28.0,-100.00,NNW,328,6.0,9.0,16,0.00,,,0.00,,2013-06-15 23:53:00,
2013-06-15 18:01:00,80.0,26.0,-100.00,NW,318,3.0,5.0,14,0.00,,,0.00,,2013-06-16 00:01:00,
2013-06-15 18:11:00,80.0,26.0,-100.00,NW,318,3.0,5.0,14,0.00,,,0.00,,2013-06-16 00:11:00,
2013-06-15 18:22:00,80.0,30.0,-100.00,West,280,4.0,5.0,16,0.00,,,0.00,,2013-06-16 00:22:00,
2013-06-15 18:33:00,80.0,27.0,-100.00,WSW,237,5.0,7.0,14,0.00,,,0.00,,2013-06-16 00:33:00,
2013-06-15 18:43:00,80.0,29.0,-100.00,WSW,241,4.0,5.0,15,0.00,,,0.00,,2013-06-16 00:43:00,
2013-06-15 18:52:00,80.0,29.0,-100.00,WSW,241,4.0,5.0,15,0.00,,,0.00,,2013-06-16 00:52:00,
2013-06-15 19:01:00,81.0,29.0,-100.00,WSW,250,3.0,4.0,15,0.00,,,0.00,,2013-06-16 01:01:00,
2013-06-15 19:11:00,80.0,35.0,-100.00,SE,136,2.0,3.0,20,0.00,,,0.00,,2013-06-16 01:11:00,
2013-06-15 19:22:00,80.0,35.0,-100.00,SE,136,2.0,3.0,20,0.00,,,0.00,,2013-06-16 01:22:00,
2013-06-15 19:33:00,80.0,34.0,-100.00,NNE,24,3.0,4.0,19,0.00,,,0.00,,2013-06-16 01:33:00,
2013-06-15 19:42:00,80.0,34.0,-100.00,NE,35,3.0,4.0,19,0.00,,,0.00,,2013-06-16 01:42:00,
2013-06-15 19:53:00,79.0,30.0,-100.00,ENE,71,4.0,6.0,17,0.00,,,0.00,,2013-06-16 01:53:00,
2013-06-15 20:01:00,79.0,30.0,-100.00,ENE,71,4.0,6.0,17,0.00,,,0.00,,2013-06-16 02:01:00,
2013-06-15 20:12:00,79.0,31.0,-100.00,NE,41,5.0,7.0,18,0.00,,,0.00,,2013-06-16 02:12:00,
2013-06-15 20:22:00,79.0,31.0,-100.00,NE,41,5.0,7.0,18,0.00,,,0.00,,2013-06-16 02:22:00,
2013-06-15 20:33:00,77.0,36.0,-100.00,East,80,7.0,8.0,23,0.00,,,0.00,,2013-06-16 02:33:00,
2013-06-15 20:43:00,77.0,35.0,-100.00,ENE,64,6.0,7.0,22,0.00,,,0.00,,2013-06-16 02:43:00,
2013-06-15 20:53:00,75.0,39.0,-100.00,ENE,61,5.0,6.0,27,0.00,,,0.00,,2013-06-16 02:53:00,
2013-06-15 21:01:00,75.0,39.0,-100.00,ENE,61,5.0,6.0,27,0.00,,,0.00,,2013-06-16 03:01:00,
2013-06-15 21:11:00,72.0,38.0,-100.00,ENE,69,6.0,8.0,28,0.00,,,0.00,,2013-06-16 03:11:00,
2013-06-15 21:22:00,72.0,38.0,-100.00,ENE,69,6.0,8.0,28,0.00,,,0.00,,2013-06-16 03:22:00,
2013-06-15 21:33:00,71.0,41.0,-100.00,ENE,68,5.0,6.0,34,0.00,,,0.00,,2013-06-16 03:33:00,
2013-06-15 21:43:00,69.0,41.0,-100.00,ENE,72,4.0,4.0,37,0.00,,,0.00,,2013-06-16 03:43:00,
2013-06-15 21:53:00,67.0,40.0,-100.00,ENE,72,6.0,6.0,37,0.00,,,0.00,,2013-06-16 03:53:00,
2013-06-15 22:01:00,67.0,40.0,-100.00,ENE,72,6.0,6.0,37,0.00,,,0.00,,2013-06-16 04:01:00,
2013-06-15 22:12:00,65.0,41.0,-100.00,East,90,1.0,2.0,42,0.00,,,0.00,,2013-06-16 04:12:00,
2013-06-15 22:23:00,65.0,41.0,-100.00,East,90,1.0,2.0,42,0.00,,,0.00,,2013-06-16 04:23:00,
2013-06-15 22:33:00,65.0,40.0,-100.00,ESE,117,6.0,7.0,40,0.00,,,0.00,,2013-06-16 04:33:00,
2013-06-15 22:42:00,61.0,42.0,-100.00,SE,127,6.0,8.0,49,0.00,,,0.00,,2013-06-16 04:42:00,
2013-06-15 22:53:00,58.0,43.0,-100.00,SE,130,4.0,6.0,57,0.00,,,0.00,,2013-06-16 04:53:00,
2013-06-15 23:11:00,58.0,42.0,-100.00,SE,131,6.0,8.0,55,0.00,,,0.00,,2013-06-16 05:11:00,
2013-06-15 23:22:00,58.0,42.0,-100.00,SE,131,6.0,8.0,55,0.00,,,0.00,,2013-06-16 05:22:00,
2013-06-15 23:33:00,57.0,41.0,-100.00,SE,134,7.0,10.0,55,0.00,,,0.00,,2013-06-16 05:33:00,
2013-06-15 23:43:00,56.0,42.0,-100.00,SE,140,9.0,11.0,59,0.00,,,0.00,,2013-06-16 05:43:00,
2013-06-15 23:52:00,56.0,42.0,-100.00,SE,140,9.0,11.0,59,0.00,,,0.00,,2013-06-16 05:52:00,